Swansboro, NC

11:46 AM EDT on March 30, 2017 (GMT -0400)
Bogue McAlf

Weather History for KNJM - October, 2013

Change the Weather History Date:

Tuesday, October 1, 2013

  Actual Average (KNKT) Record (KNKT)
Temperature  
Mean Temperature 66 °F -  
Max Temperature 80 °F 76 °F 84 °F (2002)
Min Temperature 54 °F 58 °F 48 °F (2001)
Cooling Degree Days 2    
Growing Degree Days 16 (Base 50)    
Moisture  
Dew Point 54 °F    
Average Humidity 66    
Maximum Humidity 90    
Minimum Humidity 37    
Precipitation  
Precipitation 0.00 in - - ()
Sea Level Pressure  
Sea Level Pressure 30.10 in    
Wind  
Wind Speed 3 mph (NNE)    
Max Wind Speed 12 mph    
Max Gust Speed -    
Visibility 10 miles    
Events      
Averages and records for this station are not official NWS values.
T = Trace of Precipitation, MM = Missing Value Source: NWS Daily Summary

Daily Weather History Graph

Daily Weather History Graph

Search for Another Location

Airport or City:

Trip Planner

Search our weather history database for the weather conditions in past years. The results will help you decide how hot, cold, wet, or windy it might be!

Date:

Astronomy

Oct. 01, 2013 Rise Set
Actual Time 7:02 AM EDT 6:51 PM EDT
Civil Twilight 6:37 AM EDT 7:16 PM EDT
Nautical Twilight 6:08 AM EDT 7:46 PM EDT
Astronomical Twilight 5:39 AM EDT 8:15 PM EDT
Moon 3:42 AM EDT (10/1) 4:48 PM EDT (10/1)
Length of Visible Light 12h 39m
Length of Day
11h 48m
Waning Crescent, 12% of the Moon is Illuminated
Oct 1
Waning Crescent
Oct 4
New
Oct 11
First Quarter
Oct 18
Full
Oct 26
Last Quarter

Hourly Weather History & Observations

Time (EDT) Temp. Dew Point Humidity Pressure Visibility Wind Dir Wind Speed Gust Speed Precip Events Conditions
12:57 AM 59.0 °F 51.1 °F 75% 30.08 in 10.0 mi Calm Calm - N/A   Clear
1:57 AM 55.9 °F 50.0 °F 80% 30.07 in 10.0 mi Calm Calm - N/A   Clear
2:57 AM 55.9 °F 50.0 °F 80% 30.07 in 10.0 mi Calm Calm - N/A   Clear
3:57 AM 55.0 °F 51.1 °F 86% 30.06 in 10.0 mi Calm Calm - N/A   Clear
4:57 AM 55.9 °F 52.0 °F 87% 30.07 in 10.0 mi NNW 3.5 mph - N/A   Clear
5:57 AM 54.0 °F 51.1 °F 90% 30.09 in 10.0 mi Calm Calm - N/A   Clear
6:57 AM 57.9 °F 53.1 °F 84% 30.11 in 10.0 mi North 6.9 mph - N/A   Partly Cloudy
7:57 AM 60.1 °F 57.0 °F 90% 30.13 in 10.0 mi Calm Calm - N/A   Partly Cloudy
8:57 AM 66.0 °F 57.9 °F 75% 30.14 in 10.0 mi North 4.6 mph - N/A   Clear
9:57 AM 73.0 °F 54.0 °F 51% 30.15 in 10.0 mi North 4.6 mph - N/A   Partly Cloudy
10:57 AM 75.0 °F 55.0 °F 50% 30.14 in 9.0 mi NNW 8.1 mph - N/A   Partly Cloudy
11:57 AM 77.0 °F 51.1 °F 40% 30.12 in 10.0 mi NNE 8.1 mph - N/A   Partly Cloudy
12:57 PM 79.0 °F 53.1 °F 40% 30.11 in 10.0 mi NE 3.5 mph - N/A   Partly Cloudy
1:57 PM 78.1 °F 50.0 °F 37% 30.09 in 10.0 mi NNW 11.5 mph - N/A   Clear
2:57 PM 79.0 °F 51.1 °F 38% 30.07 in 10.0 mi Variable 4.6 mph - N/A   Clear
3:57 PM 77.0 °F 55.0 °F 47% 30.06 in 10.0 mi SSE 8.1 mph - N/A   Clear
4:57 PM 75.0 °F 57.0 °F 53% 30.07 in 10.0 mi SE 8.1 mph - N/A   Clear
5:57 PM 73.9 °F 55.0 °F 52% 30.07 in 10.0 mi SE 8.1 mph - N/A   Clear
6:57 PM 71.1 °F 54.0 °F 55% 30.09 in 10.0 mi South 4.6 mph - N/A   Clear
7:57 PM 66.0 °F 55.0 °F 68% 30.10 in 10.0 mi Calm Calm - N/A   Clear
8:57 PM 64.0 °F 55.0 °F 73% 30.11 in 10.0 mi Calm Calm - N/A   Clear
9:57 PM 62.1 °F 55.0 °F 78% 30.12 in 10.0 mi Calm Calm - N/A   Clear
10:57 PM 61.0 °F 55.0 °F 81% 30.12 in 10.0 mi Calm Calm - N/A   Clear
11:57 PM 61.0 °F 55.9 °F 83% 30.12 in 10.0 mi Calm Calm - N/A   Clear